QPF
0.01 0.01 0.00 0.00 0.00 0.00 0.00 0.00 0.00 0.00 0.01 0.01 0.00 0.01 0.00 0.00 0.01 0.01 0.01 0.01 0.01 0.02 0.03 0.02 0.03 0.04 0.03 0.02 0.03 0.03 0.03 0.03 0.04 0.03 0.03 0.03 0.04 0.04 0.04 0.04 0.05 0.06 0.05
0.01 0.01 0.01 0.01 0.01 0.00 0.00 0.00 0.00 0.00 0.01 0.00 0.01 0.01 0.01 0.01 0.02 0.02 0.01 0.01 0.01 0.01 0.02 0.03 0.04 0.04 0.02 0.02 0.03 0.04 0.03 0.03 0.03 0.02 0.02 0.02 0.02 0.03 0.04 0.06 0.06 0.06 0.05
0.01 0.01 0.01 0.01 0.01 0.01 0.00 0.00 0.01 0.01 0.01 0.00 0.01 0.01 0.01 0.01 0.02 0.02 0.02 0.02 0.01 0.02 0.03 0.03 0.04 0.04 0.03 0.04 0.04 0.04 0.03 0.02 0.01 0.01 0.01 0.02 0.01 0.02 0.03 0.04 0.06 0.06 0.07
0.02 0.01 0.01 0.01 0.01 0.01 0.01 0.01 0.01 0.01 0.02 0.01 0.01 0.01 0.02 0.02 0.02 0.02 0.02 0.03 0.03 0.03 0.03 0.03 0.03 0.04 0.05 0.06 0.05 0.04 0.03 0.02 0.01 0.01 0.01 0.01 0.01 0.01 0.02 0.02 0.03 0.03 0.04
0.01 0.01 0.02 0.02 0.01 0.02 0.02 0.02 0.02 0.01 0.02 0.03 0.04 0.04 0.03 0.04 0.04 0.04 0.04 0.03 0.03 0.03 0.02 0.01 0.02 0.03 0.06 0.07 0.05 0.03 0.02 0.02 0.01 0.01 0.01 0.01 0.01 0.01 0.02 0.02 0.02 0.03 0.05
0.01 0.01 0.02 0.03 0.03 0.03 0.03 0.03 0.02 0.02 0.03 0.05 0.08 0.09 0.10 0.09 0.07 0.05 0.04 0.03 0.03 0.03 0.02 0.02 0.02 0.03 0.05 0.04 0.03 0.03 0.03 0.02 0.02 0.02 0.01 0.01 0.01 0.01 0.02 0.01 0.01 0.03 0.04
0.01 0.02 0.03 0.05 0.07 0.04 0.03 0.03 0.02 0.02 0.03 0.07 0.11 0.16 0.15 0.12 0.05 0.03 0.02 0.01 0.02 0.03 0.04 0.02 0.02 0.02 0.02 0.02 0.01 0.02 0.01 0.01 0.01 0.02 0.02 0.02 0.01 0.02 0.01 0.02 0.02 0.02 0.03
0.01 0.02 0.03 0.03 0.02 0.02 0.02 0.02 0.03 0.03 0.04 0.08 0.08 0.07 0.05 0.04 0.02 0.02 0.02 0.01 0.02 0.03 0.04 0.03 0.03 0.02 0.02 0.02 0.01 0.01 0.01 0.00 0.00 0.01 0.01 0.02 0.02 0.02 0.02 0.02 0.03 0.02 0.01
0.01 0.01 0.01 0.01 0.01 0.01 0.01 0.02 0.03 0.03 0.03 0.03 0.03 0.03 0.03 0.03 0.03 0.03 0.03 0.03 0.03 0.04 0.06 0.05 0.06 0.05 0.04 0.03 0.03 0.02 0.01 0.01 0.01 0.01 0.01 0.01 0.03 0.03 0.02 0.03 0.03 0.02 0.01
0.01 0.02 0.01 0.02 0.01 0.01 0.01 0.01 0.02 0.02 0.03 0.03 0.03 0.04 0.04 0.05 0.05 0.06 0.06 0.06 0.06 0.08 0.09 0.09 0.09 0.08 0.06 0.05 0.04 0.03 0.02 0.01 0.01 0.01 0.01 0.01 0.01 0.02 0.02 0.02 0.02 0.02 0.01
0.01 0.01 0.01 0.01 0.01 0.01 0.01 0.01 0.01 0.01 0.02 0.03 0.03 0.03 0.04 0.04 0.03 0.05 0.05 0.07 0.08 0.09 0.12 0.15 0.14 0.12 0.10 0.09 0.07 0.04 0.03 0.02 0.02 0.03 0.02 0.01 0.01 0.01 0.02 0.02 0.02 0.02 0.01
0.01 0.01 0.01 0.01 0.01 0.01 0.01 0.01 0.01 0.01 0.01 0.02 0.02 0.02 0.03 0.04 0.04 0.04 0.04 0.04 0.05 0.07 0.11 0.13 0.14 0.12 0.09 0.09 0.08 0.07 0.05 0.03 0.03 0.03 0.03 0.02 0.01 0.02 0.02 0.01 0.01 0.02 0.03
0.01 0.01 0.01 0.01 0.01 0.01 0.01 0.01 0.01 0.01 0.02 0.03 0.05 0.06 0.06 0.06 0.06 0.07 0.05 0.03 0.04 0.06 0.09 0.10 0.10 0.09 0.08 0.08 0.08 0.07 0.07 0.05 0.04 0.03 0.03 0.02 0.02 0.01 0.01 0.01 0.02 0.03 0.04
0.01 0.01 0.01 0.01 0.01 0.01 0.02 0.02 0.02 0.03 0.03 0.04 0.05 0.07 0.08 0.06 0.07 0.09 0.07 0.04 0.03 0.03 0.04 0.06 0.06 0.06 0.06 0.06 0.06 0.06 0.06 0.04 0.04 0.03 0.02 0.02 0.02 0.01 0.01 0.02 0.03 0.04 0.04
0.01 0.01 0.01 0.01 0.01 0.01 0.02 0.02 0.02 0.03 0.03 0.04 0.04 0.05 0.07 0.07 0.08 0.07 0.04 0.04 0.04 0.04 0.05 0.04 0.05 0.06 0.06 0.05 0.05 0.05 0.04 0.04 0.03 0.02 0.02 0.01 0.01 0.02 0.03 0.02 0.02 0.03 0.03
0.01 0.01 0.01 0.02 0.02 0.02 0.02 0.02 0.02 0.03 0.03 0.04 0.04 0.06 0.09 0.08 0.07 0.06 0.05 0.04 0.04 0.06 0.08 0.07 0.07 0.08 0.07 0.06 0.04 0.04 0.03 0.03 0.03 0.03 0.03 0.02 0.01 0.02 0.02 0.02 0.02 0.02 0.01
0.01 0.02 0.03 0.03 0.02 0.02 0.02 0.02 0.02 0.03 0.04 0.04 0.05 0.07 0.07 0.05 0.04 0.03 0.04 0.04 0.06 0.08 0.08 0.07 0.06 0.05 0.07 0.07 0.05 0.04 0.03 0.03 0.04 0.05 0.05 0.04 0.03 0.02 0.02 0.03 0.03 0.02 0.02
0.02 0.03 0.03 0.02 0.02 0.02 0.02 0.02 0.03 0.04 0.04 0.05 0.05 0.03 0.02 0.02 0.02 0.02 0.03 0.04 0.05 0.05 0.05 0.06 0.06 0.05 0.05 0.05 0.05 0.05 0.03 0.04 0.06 0.07 0.06 0.05 0.04 0.04 0.04 0.04 0.03 0.02 0.03
0.04 0.04 0.04 0.02 0.02 0.02 0.02 0.02 0.03 0.04 0.05 0.05 0.05 0.03 0.02 0.01 0.01 0.02 0.02 0.03 0.03 0.04 0.04 0.03 0.03 0.02 0.02 0.03 0.03 0.04 0.03 0.03 0.06 0.07 0.05 0.03 0.03 0.04 0.06 0.05 0.04 0.03 0.03
0.05 0.04 0.03 0.02 0.02 0.02 0.02 0.02 0.02 0.03 0.03 0.04 0.04 0.04 0.04 0.03 0.03 0.03 0.04 0.04 0.03 0.03 0.03 0.03 0.02 0.02 0.02 0.02 0.02 0.03 0.03 0.03 0.05 0.04 0.03 0.02 0.01 0.02 0.03 0.04 0.04 0.04 0.03
0.04 0.03 0.03 0.02 0.03 0.03 0.03 0.04 0.03 0.04 0.04 0.04 0.04 0.04 0.04 0.04 0.04 0.04 0.04 0.04 0.03 0.02 0.02 0.02 0.02 0.02 0.02 0.02 0.03 0.04 0.03 0.03 0.03 0.02 0.02 0.02 0.02 0.02 0.02 0.02 0.03 0.03 0.02
0.03 0.03 0.03 0.03 0.04 0.04 0.05 0.05 0.05 0.05 0.05 0.03 0.03 0.03 0.03 0.03 0.03 0.03 0.03 0.03 0.03 0.02 0.02 0.02 0.03 0.03 0.03 0.03 0.03 0.04 0.03 0.03 0.02 0.02 0.02 0.03 0.04 0.03 0.03 0.03 0.03 0.03 0.02
0.05 0.05 0.04 0.05 0.05 0.05 0.05 0.06 0.06 0.05 0.04 0.03 0.04 0.04 0.04 0.04 0.05 0.05 0.05 0.04 0.04 0.04 0.04 0.04 0.03 0.03 0.02 0.02 0.03 0.04 0.03 0.03 0.03 0.02 0.01 0.01 0.02 0.02 0.01 0.02 0.03 0.03 0.03
0.05 0.05 0.05 0.04 0.05 0.06 0.06 0.06 0.05 0.05 0.05 0.05 0.05 0.06 0.06 0.07 0.08 0.09 0.10 0.11 0.10 0.09 0.08 0.06 0.04 0.03 0.03 0.02 0.03 0.03 0.03 0.03 0.02 0.02 0.02 0.02 0.01 0.01 0.01 0.02 0.03 0.02 0.01
0.03 0.03 0.03 0.03 0.04 0.05 0.05 0.06 0.07 0.05 0.05 0.06 0.06 0.06 0.07 0.09 0.11 0.15 0.19 0.21 0.18 0.13 0.10 0.06 0.04 0.03 0.02 0.03 0.04 0.04 0.04 0.04 0.03 0.02 0.02 0.02 0.02 0.02 0.02 0.02 0.02 0.02 0.01
0.01 0.02 0.02 0.02 0.02 0.03 0.04 0.07 0.10 0.07 0.04 0.04 0.04 0.04 0.05 0.05 0.07 0.08 0.08 0.07 0.07 0.07 0.06 0.06 0.06 0.05 0.05 0.05 0.04 0.04 0.04 0.04 0.03 0.03 0.02 0.02 0.01 0.01 0.02 0.02 0.02 0.02 0.01
MSLP
1010.93 1011.05 1011.15 1011.21 1011.23 1011.24 1011.27 1011.34 1011.48 1011.68 1011.92 1012.17 1012.38 1012.53 1012.60 1012.58 1012.50 1012.41 1012.33 1012.31 1012.37 1012.51 1012.72 1012.97 1013.22 1013.45 1013.63 1013.75 1013.84 1013.90 1013.96 1014.04 1014.14 1014.27 1014.42 1014.55 1014.66 1014.73 1014.75 1014.74 1014.71 1014.71 1014.74
1010.57 1010.77 1010.93 1011.03 1011.07 1011.08 1011.09 1011.15 1011.28 1011.50 1011.78 1012.09 1012.37 1012.58 1012.70 1012.72 1012.65 1012.53 1012.42 1012.36 1012.38 1012.50 1012.71 1012.97 1013.26 1013.52 1013.73 1013.89 1013.99 1014.06 1014.11 1014.18 1014.26 1014.38 1014.52 1014.65 1014.76 1014.84 1014.86 1014.85 1014.82 1014.80 1014.82
1010.11 1010.40 1010.65 1010.82 1010.90 1010.93 1010.94 1010.99 1011.12 1011.35 1011.66 1012.00 1012.34 1012.62 1012.80 1012.85 1012.80 1012.68 1012.54 1012.45 1012.44 1012.53 1012.71 1012.97 1013.26 1013.54 1013.78 1013.95 1014.06 1014.13 1014.17 1014.23 1014.31 1014.42 1014.57 1014.71 1014.85 1014.95 1015.00 1015.01 1014.99 1014.98 1014.98
1009.56 1009.95 1010.30 1010.57 1010.72 1010.78 1010.81 1010.85 1010.97 1011.20 1011.51 1011.89 1012.27 1012.60 1012.83 1012.93 1012.90 1012.80 1012.66 1012.55 1012.50 1012.56 1012.72 1012.96 1013.24 1013.51 1013.75 1013.92 1014.04 1014.10 1014.14 1014.19 1014.27 1014.40 1014.55 1014.73 1014.90 1015.04 1015.14 1015.19 1015.20 1015.20 1015.20
1008.97 1009.46 1009.92 1010.28 1010.51 1010.62 1010.67 1010.71 1010.82 1011.02 1011.33 1011.71 1012.12 1012.49 1012.76 1012.91 1012.93 1012.85 1012.73 1012.61 1012.55 1012.58 1012.71 1012.92 1013.17 1013.42 1013.64 1013.81 1013.91 1013.97 1014.01 1014.06 1014.15 1014.29 1014.47 1014.69 1014.90 1015.10 1015.25 1015.35 1015.40 1015.42 1015.42
1008.36 1008.94 1009.50 1009.96 1010.27 1010.44 1010.50 1010.54 1010.62 1010.80 1011.08 1011.45 1011.86 1012.26 1012.57 1012.77 1012.84 1012.81 1012.71 1012.61 1012.55 1012.56 1012.66 1012.83 1013.05 1013.27 1013.47 1013.61 1013.70 1013.76 1013.79 1013.85 1013.95 1014.10 1014.32 1014.57 1014.84 1015.09 1015.30 1015.45 1015.54 1015.58 1015.59
1007.77 1008.41 1009.06 1009.61 1009.99 1010.20 1010.29 1010.32 1010.37 1010.51 1010.76 1011.10 1011.51 1011.91 1012.26 1012.50 1012.63 1012.65 1012.60 1012.53 1012.47 1012.48 1012.56 1012.70 1012.88 1013.07 1013.24 1013.36 1013.43 1013.48 1013.51 1013.57 1013.68 1013.85 1014.09 1014.38 1014.69 1014.99 1015.25 1015.46 1015.59 1015.67 1015.70
1007.21 1007.90 1008.61 1009.21 1009.65 1009.90 1010.00 1010.02 1010.06 1010.16 1010.37 1010.69 1011.08 1011.48 1011.85 1012.14 1012.32 1012.39 1012.40 1012.36 1012.33 1012.35 1012.42 1012.54 1012.69 1012.85 1012.98 1013.08 1013.14 1013.18 1013.21 1013.27 1013.38 1013.57 1013.82 1014.13 1014.47 1014.81 1015.11 1015.36 1015.55 1015.66 1015.72
1006.71 1007.41 1008.14 1008.77 1009.23 1009.50 1009.62 1009.66 1009.68 1009.76 1009.95 1010.24 1010.62 1011.02 1011.41 1011.73 1011.95 1012.08 1012.13 1012.14 1012.14 1012.17 1012.25 1012.36 1012.49 1012.63 1012.75 1012.83 1012.88 1012.91 1012.94 1013.00 1013.11 1013.29 1013.55 1013.86 1014.21 1014.57 1014.91 1015.20 1015.42 1015.59 1015.69
1006.27 1006.94 1007.64 1008.27 1008.74 1009.02 1009.16 1009.21 1009.25 1009.34 1009.52 1009.81 1010.17 1010.58 1010.97 1011.31 1011.57 1011.74 1011.83 1011.89 1011.93 1011.99 1012.07 1012.19 1012.33 1012.47 1012.58 1012.66 1012.71 1012.74 1012.76 1012.82 1012.92 1013.09 1013.33 1013.63 1013.98 1014.34 1014.68 1015.00 1015.26 1015.48 1015.63
1005.91 1006.50 1007.14 1007.71 1008.15 1008.45 1008.61 1008.70 1008.77 1008.90 1009.11 1009.41 1009.78 1010.19 1010.59 1010.94 1011.21 1011.41 1011.54 1011.63 1011.71 1011.80 1011.92 1012.06 1012.22 1012.38 1012.51 1012.60 1012.66 1012.70 1012.73 1012.78 1012.87 1013.02 1013.24 1013.51 1013.82 1014.16 1014.50 1014.82 1015.12 1015.37 1015.58
1005.64 1006.10 1006.62 1007.10 1007.50 1007.78 1007.97 1008.11 1008.26 1008.45 1008.72 1009.06 1009.46 1009.87 1010.27 1010.62 1010.89 1011.10 1011.25 1011.38 1011.50 1011.63 1011.79 1011.97 1012.17 1012.36 1012.53 1012.66 1012.75 1012.81 1012.85 1012.90 1012.98 1013.11 1013.29 1013.52 1013.79 1014.09 1014.40 1014.71 1015.01 1015.29 1015.55
1005.46 1005.74 1006.10 1006.46 1006.78 1007.05 1007.27 1007.47 1007.71 1007.99 1008.33 1008.73 1009.16 1009.58 1009.98 1010.32 1010.59 1010.80 1010.97 1011.11 1011.27 1011.45 1011.66 1011.90 1012.15 1012.40 1012.62 1012.79 1012.93 1013.02 1013.09 1013.15 1013.23 1013.34 1013.48 1013.66 1013.89 1014.14 1014.41 1014.69 1014.98 1015.26 1015.55
1005.36 1005.43 1005.60 1005.81 1006.03 1006.26 1006.51 1006.78 1007.11 1007.49 1007.91 1008.38 1008.84 1009.29 1009.68 1010.00 1010.26 1010.47 1010.64 1010.82 1011.01 1011.24 1011.51 1011.81 1012.13 1012.43 1012.71 1012.95 1013.13 1013.27 1013.38 1013.46 1013.55 1013.65 1013.77 1013.92 1014.09 1014.29 1014.50 1014.74 1014.99 1015.26 1015.55
1005.34 1005.19 1005.14 1005.18 1005.29 1005.47 1005.72 1006.05 1006.46 1006.93 1007.44 1007.96 1008.46 1008.92 1009.30 1009.62 1009.86 1010.07 1010.26 1010.46 1010.69 1010.97 1011.30 1011.66 1012.04 1012.41 1012.75 1013.04 1013.28 1013.47 1013.62 1013.74 1013.85 1013.95 1014.07 1014.19 1014.34 1014.49 1014.66 1014.84 1015.05 1015.28 1015.54
1005.39 1005.01 1004.75 1004.61 1004.60 1004.71 1004.96 1005.32 1005.78 1006.32 1006.89 1007.45 1007.98 1008.43 1008.81 1009.12 1009.36 1009.57 1009.78 1010.02 1010.30 1010.64 1011.02 1011.44 1011.87 1012.29 1012.67 1013.01 1013.29 1013.52 1013.71 1013.88 1014.02 1014.16 1014.29 1014.42 1014.55 1014.68 1014.81 1014.95 1015.10 1015.28 1015.49
1005.53 1004.93 1004.46 1004.16 1004.02 1004.06 1004.27 1004.63 1005.12 1005.68 1006.27 1006.85 1007.38 1007.83 1008.21 1008.51 1008.76 1008.99 1009.24 1009.52 1009.86 1010.24 1010.68 1011.14 1011.60 1012.04 1012.44 1012.80 1013.11 1013.37 1013.60 1013.80 1014.00 1014.18 1014.35 1014.51 1014.66 1014.79 1014.91 1015.02 1015.13 1015.25 1015.41
1005.74 1004.97 1004.34 1003.88 1003.62 1003.58 1003.73 1004.06 1004.52 1005.06 1005.64 1006.20 1006.71 1007.14 1007.51 1007.82 1008.10 1008.37 1008.67 1009.01 1009.40 1009.83 1010.30 1010.78 1011.25 1011.69 1012.08 1012.42 1012.73 1013.00 1013.25 1013.50 1013.74 1013.98 1014.21 1014.43 1014.62 1014.78 1014.91 1015.01 1015.10 1015.18 1015.29
1006.06 1005.16 1004.41 1003.84 1003.48 1003.34 1003.42 1003.67 1004.07 1004.55 1005.06 1005.57 1006.03 1006.44 1006.80 1007.13 1007.44 1007.77 1008.13 1008.54 1008.99 1009.46 1009.96 1010.43 1010.88 1011.28 1011.63 1011.94 1012.21 1012.46 1012.72 1012.99 1013.27 1013.57 1013.87 1014.16 1014.42 1014.63 1014.79 1014.91 1015.00 1015.06 1015.14
1006.48 1005.53 1004.70 1004.05 1003.61 1003.39 1003.37 1003.53 1003.82 1004.20 1004.62 1005.04 1005.44 1005.81 1006.16 1006.51 1006.87 1007.27 1007.70 1008.18 1008.68 1009.19 1009.69 1010.15 1010.55 1010.89 1011.17 1011.41 1011.62 1011.84 1012.08 1012.36 1012.68 1013.03 1013.39 1013.75 1014.07 1014.35 1014.56 1014.71 1014.82 1014.89 1014.94
1007.02 1006.06 1005.22 1004.54 1004.04 1003.74 1003.62 1003.66 1003.82 1004.07 1004.36 1004.67 1005.00 1005.32 1005.66 1006.03 1006.45 1006.91 1007.41 1007.95 1008.51 1009.05 1009.54 1009.97 1010.31 1010.58 1010.78 1010.93 1011.08 1011.24 1011.45 1011.72 1012.05 1012.43 1012.84 1013.25 1013.63 1013.96 1014.22 1014.42 1014.55 1014.63 1014.69
1007.66 1006.75 1005.94 1005.25 1004.72 1004.35 1004.13 1004.05 1004.07 1004.17 1004.32 1004.51 1004.75 1005.02 1005.34 1005.73 1006.18 1006.70 1007.27 1007.87 1008.46 1009.01 1009.50 1009.88 1010.17 1010.36 1010.48 1010.56 1010.63 1010.74 1010.91 1011.16 1011.49 1011.88 1012.31 1012.74 1013.15 1013.51 1013.80 1014.02 1014.17 1014.27 1014.35
1008.37 1007.55 1006.79 1006.12 1005.58 1005.15 1004.84 1004.64 1004.52 1004.47 1004.48 1004.55 1004.69 1004.90 1005.19 1005.58 1006.07 1006.63 1007.24 1007.87 1008.49 1009.04 1009.51 1009.86 1010.10 1010.23 1010.29 1010.31 1010.33 1010.39 1010.53 1010.75 1011.06 1011.43 1011.84 1012.26 1012.66 1013.02 1013.30 1013.52 1013.68 1013.79 1013.88
1009.10 1008.37 1007.69 1007.06 1006.52 1006.05 1005.66 1005.34 1005.09 1004.90 1004.78 1004.73 1004.78 1004.92 1005.18 1005.55 1006.04 1006.62 1007.25 1007.89 1008.51 1009.06 1009.50 1009.82 1010.03 1010.13 1010.15 1010.14 1010.14 1010.18 1010.30 1010.49 1010.76 1011.10 1011.47 1011.84 1012.19 1012.50 1012.74 1012.93 1013.07 1013.17 1013.26
1009.79 1009.16 1008.54 1007.96 1007.43 1006.93 1006.48 1006.07 1005.70 1005.39 1005.15 1005.00 1004.95 1005.02 1005.23 1005.57 1006.03 1006.59 1007.21 1007.84 1008.44 1008.96 1009.39 1009.70 1009.89 1009.98 1010.01 1010.01 1010.02 1010.06 1010.17 1010.34 1010.58 1010.86 1011.17 1011.46 1011.73 1011.95 1012.12 1012.24 1012.33 1012.41 1012.49
1010.38 1009.83 1009.28 1008.74 1008.21 1007.70 1007.20 1006.71 1006.26 1005.86 1005.52 1005.27 1005.13 1005.13 1005.28 1005.56 1005.98 1006.49 1007.06 1007.64 1008.20 1008.70 1009.10 1009.40 1009.60 1009.72 1009.78 1009.82 1009.87 1009.94 1010.06 1010.23 1010.44 1010.66 1010.88 1011.08 1011.24 1011.35 1011.42 1011.46 1011.48 1011.51 1011.58
Thickness
5811 5811 5811 5809 5806 5802 5800 5797 5795 5793 5790 5787 5783 5779 5777 5777 5776 5775 5774 5773 5772 5770 5768 5765 5763 5760 5757 5755 5753 5751 5749 5746 5746 5743 5741 5742 5743 5743 5742 5742 5741 5739 5738
5808 5809 5809 5809 5806 5803 5800 5798 5796 5794 5791 5789 5786 5782 5779 5777 5776 5775 5773 5772 5771 5769 5767 5764 5761 5758 5755 5752 5750 5748 5745 5743 5742 5739 5734 5731 5733 5736 5738 5737 5736 5735 5734
5808 5808 5808 5807 5805 5802 5800 5800 5797 5794 5791 5789 5785 5782 5778 5775 5773 5771 5771 5770 5769 5767 5765 5763 5760 5757 5754 5750 5747 5745 5742 5739 5737 5737 5732 5726 5722 5726 5730 5731 5731 5731 5730
5811 5809 5808 5807 5805 5805 5803 5800 5796 5793 5791 5788 5784 5780 5775 5771 5771 5770 5770 5769 5768 5765 5763 5761 5759 5756 5752 5749 5746 5744 5741 5738 5734 5733 5731 5729 5726 5721 5720 5723 5725 5726 5725
5814 5811 5810 5809 5808 5806 5803 5800 5796 5792 5790 5788 5784 5780 5776 5773 5771 5770 5768 5767 5766 5764 5762 5760 5757 5754 5751 5747 5745 5742 5739 5737 5733 5730 5728 5725 5723 5721 5716 5714 5717 5719 5720
5814 5813 5812 5810 5807 5805 5802 5799 5795 5791 5789 5787 5783 5780 5776 5773 5769 5767 5765 5764 5763 5761 5760 5757 5754 5751 5748 5746 5743 5740 5737 5734 5731 5729 5726 5723 5720 5717 5715 5711 5710 5711 5713
5812 5810 5809 5807 5805 5803 5800 5798 5794 5791 5789 5786 5782 5780 5777 5773 5770 5767 5765 5762 5760 5758 5756 5754 5751 5749 5746 5744 5740 5737 5734 5731 5728 5726 5723 5721 5719 5717 5714 5710 5707 5705 5707
5810 5810 5808 5805 5803 5801 5798 5796 5793 5790 5788 5784 5782 5780 5777 5773 5770 5768 5765 5762 5759 5757 5755 5751 5748 5746 5744 5741 5738 5734 5731 5728 5726 5723 5720 5718 5717 5715 5713 5709 5705 5700 5700
5808 5807 5806 5804 5802 5800 5798 5796 5793 5790 5787 5784 5781 5779 5776 5772 5769 5767 5765 5761 5758 5756 5752 5749 5745 5742 5740 5737 5734 5730 5727 5725 5722 5719 5717 5715 5713 5712 5710 5708 5705 5700 5694
5804 5804 5804 5802 5801 5800 5798 5795 5793 5790 5787 5783 5781 5778 5776 5773 5769 5765 5762 5759 5755 5752 5749 5745 5741 5738 5735 5732 5729 5726 5723 5720 5717 5716 5713 5711 5709 5708 5706 5705 5702 5699 5695
5800 5799 5799 5799 5797 5796 5795 5792 5789 5786 5783 5780 5778 5775 5773 5770 5766 5762 5759 5755 5752 5748 5745 5741 5738 5734 5731 5728 5724 5721 5718 5714 5712 5710 5708 5706 5705 5703 5702 5700 5698 5695 5693
5796 5796 5794 5793 5791 5789 5788 5787 5785 5783 5780 5778 5775 5771 5769 5766 5762 5758 5755 5752 5748 5745 5741 5738 5734 5730 5727 5723 5720 5717 5713 5710 5707 5705 5703 5701 5700 5698 5696 5695 5693 5691 5689
5790 5789 5788 5786 5784 5783 5782 5781 5780 5779 5777 5774 5770 5766 5763 5760 5757 5754 5751 5748 5745 5741 5737 5733 5729 5726 5723 5719 5715 5712 5708 5706 5703 5701 5698 5696 5694 5692 5691 5689 5688 5686 5685
5783 5782 5780 5779 5778 5777 5776 5776 5774 5774 5771 5768 5764 5761 5759 5755 5753 5749 5746 5743 5740 5736 5732 5728 5725 5721 5718 5714 5710 5707 5704 5701 5699 5696 5694 5692 5690 5688 5686 5684 5682 5681 5678
5777 5776 5774 5773 5772 5772 5771 5770 5769 5769 5767 5762 5759 5756 5754 5751 5747 5744 5741 5738 5734 5732 5727 5723 5719 5715 5712 5710 5706 5702 5700 5696 5694 5691 5690 5688 5687 5686 5683 5681 5678 5676 5673
5771 5770 5770 5768 5767 5766 5765 5764 5763 5762 5759 5756 5753 5751 5749 5745 5742 5739 5736 5732 5728 5725 5721 5717 5713 5709 5707 5705 5702 5698 5694 5691 5689 5686 5684 5683 5682 5681 5679 5677 5675 5673 5669
5766 5765 5764 5763 5762 5761 5760 5758 5757 5755 5752 5749 5746 5744 5741 5738 5736 5734 5730 5725 5722 5718 5714 5711 5708 5704 5702 5699 5696 5693 5689 5686 5684 5681 5679 5678 5677 5674 5673 5671 5669 5668 5666
5761 5761 5759 5758 5758 5757 5755 5753 5751 5748 5745 5742 5739 5737 5734 5731 5729 5726 5723 5719 5715 5711 5708 5705 5702 5699 5696 5693 5690 5687 5683 5681 5678 5676 5674 5672 5671 5669 5667 5665 5663 5661 5660
5757 5756 5755 5754 5752 5750 5748 5746 5744 5740 5738 5734 5732 5730 5727 5724 5722 5718 5716 5712 5708 5704 5701 5698 5696 5693 5690 5688 5684 5681 5677 5674 5672 5671 5669 5667 5666 5664 5661 5659 5656 5655 5654
5749 5748 5747 5746 5744 5742 5740 5738 5735 5732 5729 5728 5725 5723 5720 5717 5715 5712 5709 5705 5702 5698 5695 5692 5689 5686 5684 5682 5678 5675 5671 5668 5666 5664 5663 5661 5660 5658 5656 5653 5651 5649 5648
5740 5740 5738 5736 5734 5733 5731 5728 5725 5723 5723 5721 5717 5715 5713 5710 5708 5705 5701 5698 5694 5691 5687 5684 5682 5679 5677 5674 5671 5668 5665 5663 5660 5659 5658 5656 5654 5652 5650 5648 5646 5645 5644
5730 5729 5727 5725 5723 5723 5721 5718 5715 5715 5714 5712 5709 5707 5705 5703 5701 5696 5693 5689 5686 5682 5679 5676 5673 5671 5669 5666 5664 5662 5660 5658 5654 5653 5652 5650 5649 5647 5645 5642 5641 5639 5637
5718 5716 5715 5713 5711 5711 5711 5707 5706 5706 5704 5702 5700 5699 5697 5694 5692 5687 5683 5679 5676 5673 5669 5667 5664 5663 5661 5659 5658 5656 5654 5651 5649 5647 5646 5644 5642 5641 5639 5637 5635 5633 5630
5706 5704 5703 5702 5700 5700 5700 5699 5698 5698 5696 5694 5692 5690 5688 5685 5682 5678 5675 5671 5668 5665 5662 5659 5657 5656 5654 5652 5651 5649 5647 5645 5642 5640 5639 5637 5635 5633 5632 5630 5628 5626 5624
5696 5695 5693 5690 5689 5689 5689 5689 5688 5687 5685 5684 5682 5678 5676 5674 5671 5668 5666 5664 5661 5658 5655 5653 5652 5649 5648 5648 5645 5642 5640 5637 5635 5633 5630 5628 5626 5625 5624 5623 5621 5619 5617
5684 5684 5683 5681 5680 5679 5677 5677 5677 5676 5675 5673 5670 5668 5666 5664 5661 5658 5656 5655 5653 5651 5649 5647 5645 5643 5642 5640 5638 5635 5633 5630 5627 5625 5624 5622 5619 5618 5617 5616 5615 5613 5612